Time,TemperatureF,DewpointF,PressureIn,WindDirection,WindDirectionDegrees,WindSpeedMPH,WindSpeedGustMPH,Humidity,HourlyPrecipIn,Conditions,Clouds,dailyrainin,SoftwareType,DateUTC
2013-01-08 00:00:00,25.3,20.0,30.17,West,275,0.0,8.0,80,0.00,,SKC,0.02,VWS V14.01,2013-01-08 05:00:00,
2013-01-08 00:01:00,25.1,19.5,30.17,West,275,0.0,0.0,79,0.00,,SKC,0.00,VWS V14.01,2013-01-08 05:01:00,
2013-01-08 00:02:00,25.1,19.5,30.17,West,275,0.0,0.0,79,0.00,,SKC,0.00,VWS V14.01,2013-01-08 05:02:00,
2013-01-08 00:03:00,25.1,19.5,30.17,West,275,0.0,0.0,79,0.00,,SKC,0.00,VWS V14.01,2013-01-08 05:03:00,
2013-01-08 00:08:00,24.7,19.4,30.17,West,275,0.0,0.0,80,0.00,,SKC,0.00,VWS V14.01,2013-01-08 05:08:00,
2013-01-08 00:13:00,24.7,19.4,30.17,West,275,0.0,0.0,80,0.00,,SKC,0.00,VWS V14.01,2013-01-08 05:13:00,
2013-01-08 00:18:00,24.7,19.4,30.16,West,275,4.0,5.0,80,0.00,,SKC,0.00,VWS V14.01,2013-01-08 05:18:00,
2013-01-08 00:23:00,24.7,19.4,30.16,West,275,4.0,5.0,80,0.00,,SKC,0.00,VWS V14.01,2013-01-08 05:23:00,
2013-01-08 00:28:00,24.8,19.8,30.16,West,275,5.0,5.0,81,0.00,,SKC,0.00,VWS V14.01,2013-01-08 05:28:00,
2013-01-08 00:33:00,24.7,19.7,30.16,West,275,5.0,5.0,81,0.00,,SKC,0.00,VWS V14.01,2013-01-08 05:33:00,
2013-01-08 00:38:00,24.8,19.8,30.16,West,275,4.0,6.0,81,0.00,,SKC,0.00,VWS V14.01,2013-01-08 05:38:00,
2013-01-08 00:43:00,24.8,19.8,30.16,West,275,5.0,6.0,81,0.00,,SKC,0.00,VWS V14.01,2013-01-08 05:43:00,
2013-01-08 00:49:00,24.8,19.8,30.15,West,278,4.0,6.0,81,0.00,,SKC,0.00,VWS V14.01,2013-01-08 05:49:00,
2013-01-08 00:54:00,24.8,19.8,30.15,West,278,5.0,6.0,81,0.00,,SKC,0.00,VWS V14.01,2013-01-08 05:54:00,
2013-01-08 00:59:00,25.0,20.0,30.15,West,281,4.0,7.0,81,0.00,,SKC,0.00,VWS V14.01,2013-01-08 05:59:00,
2013-01-08 01:00:00,25.0,20.0,30.14,West,281,5.0,7.0,81,0.00,,SKC,0.00,VWS V14.01,2013-01-08 06:00:00,
2013-01-08 01:04:00,25.0,19.7,30.14,West,281,0.0,5.0,80,0.00,,SKC,0.00,VWS V14.01,2013-01-08 06:04:00,
2013-01-08 01:09:00,24.8,19.5,30.14,West,281,5.0,7.0,80,0.00,,SKC,0.00,VWS V14.01,2013-01-08 06:09:00,
2013-01-08 01:14:00,24.8,19.8,30.14,West,281,5.0,7.0,81,0.00,,SKC,0.00,VWS V14.01,2013-01-08 06:14:00,
2013-01-08 01:19:00,24.8,19.8,30.14,West,281,0.0,7.0,81,0.00,,SKC,0.00,VWS V14.01,2013-01-08 06:19:00,
2013-01-08 01:24:00,24.8,19.8,30.14,West,281,5.0,7.0,81,0.00,,SKC,0.00,VWS V14.01,2013-01-08 06:24:00,
2013-01-08 01:29:00,24.8,19.5,30.14,West,281,4.0,7.0,80,0.00,,SKC,0.00,VWS V14.01,2013-01-08 06:29:00,
2013-01-08 01:34:00,24.8,19.8,30.14,West,281,4.0,7.0,81,0.00,,SKC,0.00,VWS V14.01,2013-01-08 06:34:00,
2013-01-08 01:39:00,25.0,19.7,30.14,West,281,0.0,7.0,80,0.00,,SKC,0.00,VWS V14.01,2013-01-08 06:39:00,
2013-01-08 01:44:00,25.0,19.7,30.14,West,281,0.0,7.0,80,0.00,,SKC,0.00,VWS V14.01,2013-01-08 06:44:00,
2013-01-08 01:49:00,24.7,19.4,30.15,West,281,0.0,7.0,80,0.00,,SKC,0.00,VWS V14.01,2013-01-08 06:49:00,
2013-01-08 01:54:00,24.2,18.9,30.15,West,281,0.0,7.0,80,0.00,,SKC,0.00,VWS V14.01,2013-01-08 06:54:00,
2013-01-08 01:59:00,23.9,18.9,30.16,West,281,0.0,7.0,81,0.00,,SKC,0.00,VWS V14.01,2013-01-08 06:59:00,
2013-01-08 02:00:00,23.9,18.9,30.16,West,281,0.0,7.0,81,0.00,,SKC,0.00,VWS V14.01,2013-01-08 07:00:00,
2013-01-08 02:04:00,23.8,18.8,30.16,West,281,0.0,0.0,81,0.00,,SKC,0.00,VWS V14.01,2013-01-08 07:04:00,
2013-01-08 02:09:00,23.8,18.8,30.16,West,281,0.0,0.0,81,0.00,,SKC,0.00,VWS V14.01,2013-01-08 07:09:00,
2013-01-08 02:14:00,23.6,18.9,30.16,West,281,0.0,0.0,82,0.00,,SKC,0.00,VWS V14.01,2013-01-08 07:14:00,
2013-01-08 02:19:00,23.6,18.9,30.16,West,281,2.0,2.0,82,0.00,,SKC,0.00,VWS V14.01,2013-01-08 07:19:00,
2013-01-08 02:24:00,23.9,19.2,30.16,West,281,1.0,5.0,82,0.00,,SKC,0.00,VWS V14.01,2013-01-08 07:24:00,
2013-01-08 02:29:00,24.5,19.8,30.15,West,281,4.0,5.0,82,0.00,,SKC,0.00,VWS V14.01,2013-01-08 07:29:00,
2013-01-08 02:34:00,24.7,19.7,30.15,West,281,5.0,5.0,81,0.00,,SKC,0.00,VWS V14.01,2013-01-08 07:34:00,
2013-01-08 02:39:00,24.5,19.5,30.15,West,281,2.0,5.0,81,0.00,,SKC,0.00,VWS V14.01,2013-01-08 07:39:00,
2013-01-08 02:44:00,24.7,19.7,30.15,West,281,0.0,5.0,81,0.00,,SKC,0.00,VWS V14.01,2013-01-08 07:44:00,
2013-01-08 02:49:00,24.7,19.4,30.15,West,281,0.0,5.0,80,0.00,,SKC,0.00,VWS V14.01,2013-01-08 07:49:00,
2013-01-08 02:54:00,24.7,19.7,30.15,West,281,0.0,5.0,81,0.00,,SKC,0.00,VWS V14.01,2013-01-08 07:54:00,
2013-01-08 02:59:00,24.5,19.2,30.16,West,281,0.0,5.0,80,0.00,,SKC,0.00,VWS V14.01,2013-01-08 07:59:00,
2013-01-08 03:00:00,24.5,19.2,30.16,West,281,0.0,5.0,80,0.00,,SKC,0.00,VWS V14.01,2013-01-08 08:00:00,
2013-01-08 03:04:00,24.2,18.9,30.16,West,281,0.0,0.0,80,0.00,,SKC,0.00,VWS V14.01,2013-01-08 08:04:00,
2013-01-08 03:09:00,24.2,19.2,30.16,West,281,0.0,0.0,81,0.00,,SKC,0.00,VWS V14.01,2013-01-08 08:09:00,
2013-01-08 03:14:00,23.8,18.5,30.16,West,281,0.0,0.0,80,0.00,,SKC,0.00,VWS V14.01,2013-01-08 08:14:00,
2013-01-08 03:19:00,23.6,18.6,30.16,West,281,0.0,0.0,81,0.00,,SKC,0.00,VWS V14.01,2013-01-08 08:19:00,
2013-01-08 03:24:00,23.5,18.5,30.16,West,281,0.0,0.0,81,0.00,,SKC,0.00,VWS V14.01,2013-01-08 08:24:00,
2013-01-08 03:29:00,23.3,18.3,30.16,West,281,0.0,0.0,81,0.00,,SKC,0.00,VWS V14.01,2013-01-08 08:29:00,
2013-01-08 03:34:00,23.2,18.5,30.16,West,281,0.0,0.0,82,0.00,,SKC,0.00,VWS V14.01,2013-01-08 08:34:00,
2013-01-08 03:39:00,23.0,18.3,30.16,West,281,0.0,0.0,82,0.00,,SKC,0.00,VWS V14.01,2013-01-08 08:39:00,
2013-01-08 03:44:00,22.7,18.0,30.16,West,281,0.0,0.0,82,0.00,,SKC,0.00,VWS V14.01,2013-01-08 08:44:00,
2013-01-08 03:49:00,22.9,18.2,30.16,West,281,2.0,3.0,82,0.00,,SKC,0.00,VWS V14.01,2013-01-08 08:49:00,
2013-01-08 03:54:00,23.5,19.1,30.16,West,281,1.0,4.0,83,0.00,,SKC,0.00,VWS V14.01,2013-01-08 08:54:00,
2013-01-08 03:59:00,23.8,19.4,30.16,West,281,2.0,4.0,83,0.00,,SKC,0.00,VWS V14.01,2013-01-08 08:59:00,
2013-01-08 04:00:00,23.8,19.1,30.16,West,281,2.0,4.0,82,0.00,,SKC,0.00,VWS V14.01,2013-01-08 09:00:00,
2013-01-08 04:05:00,24.1,19.4,30.16,West,281,0.0,4.0,82,0.00,,SKC,0.00,VWS V14.01,2013-01-08 09:05:00,
2013-01-08 04:10:00,24.2,19.5,30.16,West,281,0.0,4.0,82,0.00,,SKC,0.00,VWS V14.01,2013-01-08 09:10:00,
2013-01-08 04:15:00,24.1,19.4,30.16,West,281,0.0,4.0,82,0.00,,SKC,0.00,VWS V14.01,2013-01-08 09:15:00,
2013-01-08 04:20:00,23.8,18.8,30.16,West,281,0.0,4.0,81,0.00,,SKC,0.00,VWS V14.01,2013-01-08 09:20:00,
2013-01-08 04:25:00,23.3,18.3,30.16,West,281,0.0,4.0,81,0.00,,SKC,0.00,VWS V14.01,2013-01-08 09:25:00,
2013-01-08 04:30:00,23.2,18.5,30.17,West,281,0.0,4.0,82,0.00,,SKC,0.00,VWS V14.01,2013-01-08 09:30:00,
2013-01-08 04:35:00,23.0,18.0,30.17,West,281,0.0,4.0,81,0.00,,SKC,0.00,VWS V14.01,2013-01-08 09:35:00,
2013-01-08 04:40:00,21.9,16.7,30.17,West,281,0.0,4.0,80,0.00,,SKC,0.00,VWS V14.01,2013-01-08 09:40:00,
2013-01-08 04:45:00,21.0,16.4,30.18,West,281,0.0,4.0,82,0.00,,SKC,0.00,VWS V14.01,2013-01-08 09:45:00,
2013-01-08 04:50:00,21.0,16.7,30.18,West,281,0.0,4.0,83,0.00,,SKC,0.00,VWS V14.01,2013-01-08 09:50:00,
2013-01-08 04:55:00,21.1,16.8,30.18,West,281,0.0,4.0,83,0.00,,SKC,0.00,VWS V14.01,2013-01-08 09:55:00,
2013-01-08 05:00:00,21.4,17.0,30.18,West,281,0.0,4.0,83,0.00,,SKC,0.00,VWS V14.01,2013-01-08 10:00:00,
2013-01-08 05:05:00,21.8,17.7,30.18,West,281,0.0,0.0,84,0.00,,SKC,0.00,VWS V14.01,2013-01-08 10:05:00,
2013-01-08 05:10:00,22.4,18.3,30.18,West,281,0.0,0.0,84,0.00,,SKC,0.00,VWS V14.01,2013-01-08 10:10:00,
2013-01-08 05:15:00,22.7,18.6,30.18,West,281,0.0,0.0,84,0.00,,SKC,0.00,VWS V14.01,2013-01-08 10:15:00,
2013-01-08 05:20:00,23.0,18.9,30.18,West,281,0.0,1.0,84,0.00,,SKC,0.00,VWS V14.01,2013-01-08 10:20:00,
2013-01-08 05:25:00,23.2,19.1,30.18,West,281,0.0,1.0,84,0.00,,SKC,0.00,VWS V14.01,2013-01-08 10:25:00,
2013-01-08 05:30:00,23.5,19.4,30.18,West,281,2.0,4.0,84,0.00,,SKC,0.00,VWS V14.01,2013-01-08 10:30:00,
2013-01-08 05:35:00,23.9,19.5,30.18,West,281,1.0,4.0,83,0.00,,SKC,0.00,VWS V14.01,2013-01-08 10:35:00,
2013-01-08 05:40:00,24.1,19.7,30.18,West,281,0.0,4.0,83,0.00,,SKC,0.00,VWS V14.01,2013-01-08 10:40:00,
2013-01-08 05:45:00,24.4,19.7,30.18,West,281,0.0,4.0,82,0.00,,SKC,0.00,VWS V14.01,2013-01-08 10:45:00,
2013-01-08 05:50:00,24.4,19.7,30.18,West,281,0.0,4.0,82,0.00,,SKC,0.00,VWS V14.01,2013-01-08 10:50:00,
2013-01-08 05:55:00,24.5,19.8,30.18,West,281,0.0,4.0,82,0.00,,SKC,0.00,VWS V14.01,2013-01-08 10:55:00,
2013-01-08 06:00:00,24.4,19.4,30.19,West,281,0.0,4.0,81,0.00,,SKC,0.00,VWS V14.01,2013-01-08 11:00:00,
2013-01-08 06:05:00,24.2,19.2,30.19,West,281,0.0,0.0,81,0.00,,SKC,0.00,VWS V14.01,2013-01-08 11:05:00,
2013-01-08 06:10:00,24.2,19.2,30.19,West,281,0.0,0.0,81,0.00,,SKC,0.00,VWS V14.01,2013-01-08 11:10:00,
2013-01-08 06:15:00,24.4,19.4,30.18,West,281,0.0,0.0,81,0.00,,SKC,0.00,VWS V14.01,2013-01-08 11:15:00,
2013-01-08 06:20:00,24.4,19.4,30.18,West,281,0.0,0.0,81,0.00,,SKC,0.00,VWS V14.01,2013-01-08 11:20:00,
2013-01-08 06:25:00,24.4,19.4,30.18,West,281,2.0,4.0,81,0.00,,SKC,0.00,VWS V14.01,2013-01-08 11:25:00,
2013-01-08 06:30:00,24.4,19.4,30.18,West,281,2.0,4.0,81,0.00,,SKC,0.00,VWS V14.01,2013-01-08 11:30:00,
2013-01-08 06:35:00,24.4,19.4,30.18,West,281,2.0,4.0,81,0.00,,SKC,0.00,VWS V14.01,2013-01-08 11:35:00,
2013-01-08 06:40:00,24.5,19.5,30.18,West,281,1.0,4.0,81,0.00,,SKC,0.00,VWS V14.01,2013-01-08 11:40:00,
2013-01-08 06:45:00,24.2,18.9,30.19,West,281,4.0,4.0,80,0.00,,SKC,0.00,VWS V14.01,2013-01-08 11:45:00,
2013-01-08 06:50:00,24.1,18.8,30.19,West,281,0.0,4.0,80,0.00,,SKC,0.00,VWS V14.01,2013-01-08 11:50:00,
2013-01-08 06:55:00,23.9,18.6,30.19,West,281,0.0,4.0,80,0.00,,SKC,0.00,VWS V14.01,2013-01-08 11:55:00,
2013-01-08 07:00:00,23.8,18.5,30.19,West,281,0.0,0.0,80,0.00,,SKC,0.00,VWS V14.01,2013-01-08 12:00:00,
2013-01-08 07:05:00,23.6,18.6,30.19,West,281,0.0,2.0,81,0.00,,SKC,0.00,VWS V14.01,2013-01-08 12:05:00,
2013-01-08 07:10:00,23.6,18.6,30.19,West,281,0.0,2.0,81,0.00,,SKC,0.00,VWS V14.01,2013-01-08 12:10:00,
2013-01-08 07:15:00,22.9,17.4,30.20,West,281,0.0,2.0,79,0.00,,SKC,0.00,VWS V14.01,2013-01-08 12:15:00,
2013-01-08 07:20:00,22.1,16.9,30.20,West,281,0.0,2.0,80,0.00,,SKC,0.00,VWS V14.01,2013-01-08 12:20:00,
2013-01-08 07:25:00,22.1,17.2,30.20,West,281,0.0,2.0,81,0.00,,SKC,0.00,VWS V14.01,2013-01-08 12:25:00,
2013-01-08 07:30:00,22.2,17.5,30.20,West,281,0.0,2.0,82,0.00,,SKC,0.00,VWS V14.01,2013-01-08 12:30:00,
2013-01-08 07:35:00,22.5,17.9,30.20,West,281,0.0,2.0,82,0.00,,SKC,0.00,VWS V14.01,2013-01-08 12:35:00,
2013-01-08 07:40:00,23.0,18.3,30.20,West,281,0.0,2.0,82,0.00,,SKC,0.00,VWS V14.01,2013-01-08 12:40:00,
2013-01-08 07:45:00,23.3,18.6,30.21,West,281,0.0,2.0,82,0.00,,SKC,0.00,VWS V14.01,2013-01-08 12:45:00,
2013-01-08 07:50:00,23.5,18.8,30.21,West,281,0.0,2.0,82,0.00,,SKC,0.00,VWS V14.01,2013-01-08 12:50:00,
2013-01-08 07:55:00,23.8,19.1,30.21,West,281,2.0,4.0,82,0.00,,SKC,0.00,VWS V14.01,2013-01-08 12:55:00,
2013-01-08 08:00:00,23.9,19.2,30.21,West,281,0.0,0.0,82,0.00,,SKC,0.00,VWS V14.01,2013-01-08 13:00:00,
2013-01-08 08:05:00,23.9,18.9,30.21,West,281,0.0,0.0,81,0.00,,SKC,0.00,VWS V14.01,2013-01-08 13:05:00,
2013-01-08 08:10:00,24.1,19.1,30.21,West,281,0.0,0.0,81,0.00,,SKC,0.00,VWS V14.01,2013-01-08 13:10:00,
2013-01-08 08:15:00,24.2,19.2,30.21,West,281,0.0,0.0,81,0.00,,SKC,0.00,VWS V14.01,2013-01-08 13:15:00,
2013-01-08 08:20:00,24.1,19.1,30.21,West,281,2.0,4.0,81,0.00,,SKC,0.00,VWS V14.01,2013-01-08 13:20:00,
2013-01-08 08:25:00,24.1,19.1,30.21,West,281,0.0,4.0,81,0.00,,SKC,0.00,VWS V14.01,2013-01-08 13:25:00,
2013-01-08 08:30:00,24.2,19.2,30.22,West,281,0.0,4.0,81,0.00,,SKC,0.00,VWS V14.01,2013-01-08 13:30:00,
2013-01-08 08:35:00,24.4,19.4,30.22,West,281,0.0,4.0,81,0.00,,SKC,0.00,VWS V14.01,2013-01-08 13:35:00,
2013-01-08 08:40:00,24.5,19.2,30.22,West,281,0.0,4.0,80,0.00,,SKC,0.00,VWS V14.01,2013-01-08 13:40:00,
2013-01-08 08:45:00,24.7,19.4,30.23,West,281,0.0,4.0,80,0.00,,SKC,0.00,VWS V14.01,2013-01-08 13:45:00,
2013-01-08 08:50:00,25.0,19.7,30.23,West,281,0.0,4.0,80,0.00,,SKC,0.00,VWS V14.01,2013-01-08 13:50:00,
2013-01-08 08:55:00,25.3,20.0,30.23,West,281,0.0,4.0,80,0.00,,SKC,0.00,VWS V14.01,2013-01-08 13:55:00,
2013-01-08 09:00:00,25.4,19.8,30.23,West,281,0.0,0.0,79,0.00,,SKC,0.00,VWS V14.01,2013-01-08 14:00:00,
2013-01-08 09:06:00,25.6,20.0,30.23,West,281,0.0,0.0,79,0.00,,SKC,0.00,VWS V14.01,2013-01-08 14:06:00,
2013-01-08 09:11:00,25.6,20.0,30.23,West,281,0.0,0.0,79,0.00,,SKC,0.00,VWS V14.01,2013-01-08 14:11:00,
2013-01-08 09:16:00,25.7,20.1,30.23,West,281,0.0,0.0,79,0.00,,SKC,0.00,VWS V14.01,2013-01-08 14:16:00,
2013-01-08 09:21:00,26.0,20.4,30.23,West,281,0.0,0.0,79,0.00,,SKC,0.00,VWS V14.01,2013-01-08 14:21:00,
2013-01-08 09:26:00,26.1,20.2,30.23,West,281,0.0,0.0,78,0.00,,SKC,0.00,VWS V14.01,2013-01-08 14:26:00,
2013-01-08 09:31:00,26.4,20.5,30.23,West,281,0.0,0.0,78,0.00,,SKC,0.00,VWS V14.01,2013-01-08 14:31:00,
2013-01-08 09:36:00,26.9,21.0,30.23,West,281,2.0,4.0,78,0.00,,SKC,0.00,VWS V14.01,2013-01-08 14:36:00,
2013-01-08 09:41:00,27.3,21.1,30.23,West,281,0.0,4.0,77,0.00,,SKC,0.00,VWS V14.01,2013-01-08 14:41:00,
2013-01-08 09:46:00,27.8,21.5,30.24,West,281,0.0,4.0,77,0.00,,SKC,0.00,VWS V14.01,2013-01-08 14:46:00,
2013-01-08 09:51:00,28.2,21.3,30.24,West,281,0.0,4.0,75,0.00,,SKC,0.00,VWS V14.01,2013-01-08 14:51:00,
2013-01-08 09:56:00,28.5,21.3,30.24,West,281,3.0,4.0,74,0.00,,SKC,0.00,VWS V14.01,2013-01-08 14:56:00,
2013-01-08 10:00:00,28.8,21.2,30.24,West,281,3.0,6.0,73,0.00,,SKC,0.00,VWS V14.01,2013-01-08 15:00:00,
2013-01-08 10:01:00,28.8,21.2,30.24,West,281,2.0,4.0,73,0.00,,SKC,0.00,VWS V14.01,2013-01-08 15:01:00,
2013-01-08 10:06:00,29.3,21.7,30.24,West,281,5.0,5.0,73,0.00,,SKC,0.00,VWS V14.01,2013-01-08 15:06:00,
2013-01-08 10:11:00,29.3,22.1,30.24,West,281,5.0,5.0,74,0.00,,SKC,0.00,VWS V14.01,2013-01-08 15:11:00,
2013-01-08 11:00:00,30.7,21.4,30.24,West,270,4.0,7.0,68,0.00,,SKC,0.00,VWS V14.01,2013-01-08 16:00:00,
2013-01-08 12:00:00,34.2,23.3,30.22,NW,315,3.0,7.0,64,0.01,,SKC,0.01,VWS V14.01,2013-01-08 17:00:00,
2013-01-08 13:00:00,36.7,23.7,30.19,NW,315,6.0,11.0,59,0.02,,SKC,0.02,VWS V14.01,2013-01-08 18:00:00,
2013-01-08 14:00:00,38.7,23.5,30.18,NW,315,6.0,10.0,54,0.03,,SKC,0.04,VWS V14.01,2013-01-08 19:00:00,
2013-01-08 15:00:00,39.6,24.3,30.19,NW,315,4.0,9.0,54,0.02,,SKC,0.04,VWS V14.01,2013-01-08 20:00:00,
2013-01-08 16:00:00,40.4,26.4,30.20,NW,315,1.0,9.0,57,0.01,,SKC,0.05,VWS V14.01,2013-01-08 21:00:00,
2013-01-08 17:00:00,40.3,27.5,30.22,NNW,338,1.0,7.0,60,0.01,,SKC,0.05,VWS V14.01,2013-01-08 22:00:00,
2013-01-08 18:00:00,38.8,27.3,30.20,NNW,338,2.0,5.0,63,0.00,,SKC,0.05,VWS V14.01,2013-01-08 23:00:00,
2013-01-08 19:00:00,38.0,26.5,30.20,NNW,338,1.0,5.0,63,0.00,,SKC,0.05,VWS V14.01,2013-01-09 00:00:00,
2013-01-08 20:00:00,36.2,26.3,30.21,NNW,338,0.0,5.0,67,0.00,,SKC,0.05,VWS V14.01,2013-01-09 01:00:00,
2013-01-08 21:00:00,34.6,26.2,30.21,NNW,338,0.0,2.0,71,0.00,,SKC,0.05,VWS V14.01,2013-01-09 02:00:00,
2013-01-08 22:00:00,33.1,25.7,30.20,NNW,338,0.0,2.0,74,0.00,,SKC,0.05,VWS V14.01,2013-01-09 03:00:00,
2013-01-08 23:00:00,32.9,25.9,30.17,NW,315,0.0,6.0,75,0.00,,SKC,0.05,VWS V14.01,2013-01-09 04:00:00,